Regional Weather Roundup
Issued by NWS

Home | Current Version | Previous Version | Text Only | Print | Product List | Glossary On
Versions: 1 2 3 4 5 6 7 8 9 10 11 12 13 14 15 16 17 18 19 20 21 22 23 24 25 26 27
000
ASUS45 KPSR 201310
RWRAZ

ARIZONA HOURLY REGIONAL WEATHER ROUNDUP
NATIONAL WEATHER SERVICE PHOENIX AZ
600 AM MST WED SEP 20 2017

NOTE: FAIR INDICATES FEW OR NO CLOUDS BELOW 12,000 FEET WITH NO
SIGNIFICANT WEATHER AND/OR OBSTRUCTIONS TO VISIBILITY.

AZZ001>003-036-201400-
NORTHWEST ARIZONA

CITY           SKY/WX    TMP DP  RH WIND       PRES   REMARKS
BULLHEAD CITY  CLEAR     77  41  27 SE8       29.74R
KINGMAN        CLEAR     59  39  47 SE5       29.89R
$$

AZZ004>008-015-016-018-201400-
NORTH CENTRAL ARIZONA

CITY           SKY/WX    TMP DP  RH WIND       PRES   REMARKS
GRAND CANYON   PTCLDY    35  29  78 CALM      30.10R
WILLIAMS       CLEAR     48  28  46 S5        30.10R
PRESCOTT       CLEAR     52  37  56 CALM      30.03R
FLAGSTAFF      CLEAR     38  28  67 CALM      30.13R
PAYSON           N/A     52  28  40 CALM      30.08R
PAGE           CLEAR     62  35  36 S6        29.92R
$$

AZZ009>014-017-201400-
NORTHEAST ARIZONA

CITY           SKY/WX    TMP DP  RH WIND       PRES   REMARKS
WINSLOW        PTCLDY    53  33  46 E10       30.03R
SAINT JOHNS    PTCLDY    43  30  60 CALM      30.08R
WINDOW ROCK    PTCLDY    44  30  57 CALM      30.14R
SHOW LOW       CLEAR     57  32  38 S21G30    30.10R
$$

AZZ540-542>544-546-548-201400-
GREATER PHOENIX AREA

CITY           SKY/WX    TMP DP  RH WIND       PRES   REMARKS
PHOENIX        PTCLDY    72  42  34 E6        29.82R
BUCKEYE        CLEAR     73  27  17 E10       29.82R
GLENDALE       PTCLDY    70  34  26 CALM      29.85
LUKE AFB       CLEAR     67  37  33 NW8       29.83R
SCOTTSDALE     CLEAR     73  36  25 E3        29.86R
MESA-FALCON    CLEAR     75  46  35 E8        29.86
MESA-GATEWAY   CLEAR     68  41  37 E9        29.87R
CHANDLER       CLEAR     68  50  52 E5        29.84
$$

AZZ539-553-201400-
SOUTHWEST MARICOPA COUNTY AND PINAL COUNTY

CITY           SKY/WX    TMP DP  RH WIND       PRES   REMARKS
CASA GRANDE    NOT AVBL
GILA BEND      FAIR      72  52  49 SE8       29.79R
$$

AZZ503-504-507>509-201400-
SOUTHEAST ARIZONA

CITY           SKY/WX    TMP DP  RH WIND       PRES   REMARKS
TUCSON         CLEAR     71  55  56 SE8       29.96S
DAVIS-MONTHAN  CLEAR     67  55  64 SE7       29.95R
RYAN FIELD     CLEAR     73  61  64 SE9       29.94
NOGALES        CLEAR     62  57  83 CALM      30.04R
SIERRA VISTA   CLEAR     63  55  75 NE6       30.09R
DOUGLAS        CLEAR     62  55  77 NE3       30.06R
SAFFORD        CLEAR     60  37  42 SE3       29.97R
$$

AZZ532-201400-
SOUTHWEST ARIZONA

CITY           SKY/WX    TMP DP  RH WIND       PRES   REMARKS
YUMA             N/A     73  59  61 N3        29.74R
$$

CAZ041-043-047-048-061-525>527-560>570-201400-
SOUTHERN CALIFORNIA

CITY           SKY/WX    TMP DP  RH WIND       PRES   REMARKS
DOWNTOWN L.A.  PTCLDY    63  58  83 CALM      29.86S
L.A. AIRPORT   CLOUDY    65  61  87 CALM      29.86S
SAN DIEGO      MOCLDY    69  58  67 S8        29.88S
BURBANK        MOCLDY    60  54  80 CALM      29.87S
ONTARIO        CLOUDY    65  59  81 W8        29.87
RIVERSIDE      CLOUDY    65  60  84 W6        29.87S
PALM SPRINGS   CLEAR     74  54  49 W7        29.76R
EL CENTRO NAS  CLEAR     67  42  40 CALM      29.75R
IMPERIAL       CLEAR     67  42  40 CALM      29.73R
BLYTHE         CLEAR     68  49  50 N6        29.75R
NEEDLES        CLEAR     78  45  30 W10       29.76R
$$

NVZ020-UTZ003-201400-
SOUTHERN NEVADA-UTAH

CITY           SKY/WX    TMP DP  RH WIND       PRES   REMARKS
LAS VEGAS      CLEAR     72  40  31 S5        29.78R
SALT LAKE CITY PTCLDY    48  36  63 SE9       29.93S
$$

NMZ009-TXZ055-201400-
NEW MEXICO-WEST TEXAS

CITY           SKY/WX    TMP DP  RH WIND       PRES   REMARKS
ALBUQUERQUE    CLOUDY    57  37  47 SE8       30.07R
EL PASO        PTCLDY    76  48  37 W10       30.01R
$$


........................KEY........................
SKY/WX - SKY CONDITION/WEATHER
TMP    - TEMPERATURE IN FAHRENHEIT
DP     - DEW POINT IN FAHRENHEIT
RH     - RELATIVE HUMIDITY IN PERCENT
WIND   - DIRECTION AND SPEED IN MILES PER HOUR (MPH)
VRB    - VARIABLE WIND DIRECTION
PRES   - MEAN SEA LEVEL PRESSURE IN INCHES OF MERCURY
         F - FALLING PRESSURE   R - RISING PRESSURE
         S - STEADY PRESSURE
VSB    - VISIBILITY IN MILES
HX     - HEAT INDEX IN FAHRENHEIT
WCI    - WIND CHILL INDEX IN FAHRENHEIT
TC     - TEMPERATURE IN CELSIUS WHICH IS ALSO KNOWN AS
         TEMPERATURE IN CENTIGRADE
AFB    - AIR FORCE BASE
         LUKE AFB IS LUKE AIR FORCE BASE
         DAVIS-MONTHAN IS DAVIS-MONTHAN AIR FORCE BASE
NAS    - NAVAL AIR STATION
         EL CENTRO NAS IS EL CENTRO NAVAL AIR STATION
N/A    - NOT AVAILABLE





USA.gov is the U.S. government's official web portal to all federal, state and local government web resources and services.